Flag for U.S.A. Weather past 2 weeks in Vincennes, Indiana, U.S.A.

Now
55 °F

Clear.


Feels Like: 54 °F
Forecast: 52 / 75 °F
Wind: 6 mph from South

Location: Lawrenceville-Vincennes International Airport

Current Time: Oct 24, 2014 at 9:31:36 PM

Latest Report: Oct 24, 2014 at 8:53 PM


Visibility: 10 mi

Pressure: 30.03 "Hg

Humidity: 83%

Dew point: 50 °F

Location of VincennesLocation

Historic Weather in Vincennes — Graph

°F

Vincennes temperature yesterday

Maximum temperature yesterday: 62 °F (at 3:53 PM)
Minimum temperature yesterday: 37 °F (at 4:53 AM)
Average temperature yesterday: 49 °F

Past Weeks' High & Low Weather Summary

 TemperatureHumidityPressure
High77 °F (Oct 13, 3:53 PM)100% (Oct 10, 12:53 PM)30.34 "Hg (Oct 10, 12:53 PM)
Low37 °F (Oct 23, 4:53 AM)37% (Oct 20, 5:53 PM)29.51 "Hg (Oct 14, 6:53 AM)
Average55 °F81%29.98 "Hg
* Reported Oct 9 7:02 PM — Oct 24 7:53 PM, Vincennes, Weather by CustomWeather, © 2014

Note: Actual official high and low records may vary slightly from our data, if they occured in-between our weather recording intervals... More about our weather records

Advertising

Vincennes weather history for previous 24 hours

 ConditionsComfort  
Time TempWeatherWind HumidityBarometerVisibility
7:53 PM
Oct 24
59 °FSunny.5 mph75%30.03 "Hg9 mi
6:53 PM65 °FSunny.5 mph63%30.02 "Hg10 mi
5:53 PM70 °FPartly sunny.10 mph53%30.03 "Hg10 mi
4:53 PM70 °FPartly sunny.9 mph53%30.03 "Hg10 mi
3:53 PM70 °FPassing clouds.7 mph55%30.04 "Hg10 mi
2:53 PM69 °FPassing clouds.6 mph55%30.05 "Hg10 mi
1:53 PM68 °FSunny.7 mph57%30.08 "Hg7 mi
12:53 PM64 °FSunny.3 mph61%30.11 "Hg10 mi
11:53 AM60 °FPartly sunny.6 mph67%30.12 "Hg10 mi
10:53 AM56 °FOvercast.5 mph75%30.13 "Hg9 mi
9:53 AM53 °FOvercast.5 mph83%30.12 "Hg8 mi
8:53 AM52 °FMostly cloudy.3 mph86%30.11 "Hg7 mi
7:53 AM51 °FOvercast.5 mph89%30.11 "Hg8 mi
6:53 AM51 °FOvercast.3 mph89%30.11 "Hg7 mi
5:53 AM50 °FOvercast.No wind89%30.11 "Hg7 mi
4:53 AM50 °FOvercast.3 mph93%30.10 "Hg7 mi
3:53 AM49 °FOvercast.No wind93%30.11 "Hg7 mi
2:53 AM47 °FFog.3 mph97%30.12 "Hg6 mi
1:53 AM45 °FClear.3 mph93%30.12 "Hg8 mi
12:53 AM47 °FClear.No wind93%30.12 "Hg8 mi
11:53 PM
Oct 23
49 °FClear.No wind86%30.12 "Hg9 mi
10:53 PM49 °FClear.3 mph90%30.13 "Hg10 mi
9:53 PM51 °FClear.No wind77%30.14 "Hg10 mi
Weather by CustomWeather, © 2014

See weather overviewHow to use our weather pages